This is the latest recevied weather packets stored in our database for station/object KF7SOJ. If no packets are shown the sender has not sent any weather packets the latest 10 day(s).
| Time | Temp. | Humidity | Pressure | Rain* | Wind** | Luminosity | Snow |
|---|---|---|---|---|---|---|---|
| 1788278314 | 16.11° C | 56% | 930.8 hPa | 0 mm | - | 259 W/m² | - |
| 1788278009 | 15.56° C | 55% | 930.9 hPa | 0 mm | - | 248 W/m² | - |
| 1788277706 | 15° C | 59% | 931 hPa | 0 mm | - | 235 W/m² | - |
| 1788277405 | 15° C | 60% | 930.9 hPa | 0 mm | - | 222 W/m² | - |
| 1788277100 | 14.44° C | 60% | 930.9 hPa | 0 mm | - | 208 W/m² | - |
| 1788276800 | 14.44° C | 61% | 930.9 hPa | 0 mm | - | 196 W/m² | - |
| 1788276499 | 14.44° C | 61% | 930.9 hPa | 0 mm | - | 179 W/m² | - |
| 1788276198 | 13.89° C | 60% | 930.8 hPa | 0 mm | - | 167 W/m² | - |
| 1788275894 | 13.89° C | 61% | 930.9 hPa | 0 mm | - | 158 W/m² | - |
| 1788275588 | 13.89° C | 61% | 931 hPa | 0 mm | - | 161 W/m² | - |
| 1788275288 | 13.89° C | 60% | 930.9 hPa | 0 mm | - | 171 W/m² | - |
| 1788274985 | 13.33° C | 64% | 930.9 hPa | 0 mm | - | 168 W/m² | - |
| 1788274684 | 12.78° C | 66% | 930.9 hPa | 0 mm | - | 175 W/m² | - |
| 1788274383 | 12.78° C | 68% | 931 hPa | 0 mm | - | 161 W/m² | - |
| 1788274079 | 12.78° C | 69% | 930.9 hPa | 0 mm | - | 158 W/m² | - |
| 1788273774 | 12.78° C | 66% | 930.9 hPa | 0 mm | - | 151 W/m² | - |
| 1788273470 | 12.22° C | 66% | 931 hPa | 0 mm | - | 146 W/m² | - |
| 1788273166 | 12.22° C | 65% | 930.9 hPa | 0 mm | - | 133 W/m² | - |
| 1788272862 | 12.78° C | 65% | 931 hPa | 0 mm | - | 119 W/m² | - |
| 1788272561 | 12.78° C | 66% | 930.8 hPa | 0 mm | - | 107 W/m² | - |
| 1788272256 | 12.78° C | 66% | 930.8 hPa | 0 mm | - | 98 W/m² | - |
| 1788271956 | 12.78° C | 63% | 930.5 hPa | 0 mm | - | 94 W/m² | - |
| 1788271656 | 12.22° C | 65% | 930.7 hPa | 0 mm | - | 91 W/m² | - |
| 1788271354 | 11.67° C | 67% | 930.6 hPa | 0 mm | - | 84 W/m² | - |
| 1788271050 | 11.11° C | 70% | 930.7 hPa | 0 mm | - | 76 W/m² | - |
* Rain latest hour (hover to see other rain measurements)
** Current wind speed in m/s (hover to see current wind gust speed)